When you browse on this site, cookies collect data to enhance your experience and personalize the content and advertising you see.
Visit our Privacy Policy to learn more. By continuing to use the site, you agree to this use of cookies and data.
  • Em Portugal
  • Lista de países
  • Para 7 dias
  • Temperatura da água
  • Mapa do tempo
  • Widgets de tempo
  • user-avatar
    Iniciar Sessão

    Previsão horária em Veseloe

    Hoje, 20 Setembro, Sexta-feira

    Tempo Temperatura Precipitação Vento Pressão Humidade
    00:00 +5°C° 0 mm 3 m/s 747 mmHg 90%
    01:00 +4°C° 0 mm 3 m/s 747 mmHg 93%
    02:00 +4°C° 0 mm 3 m/s 747 mmHg 95%
    03:00 +4°C° 0 mm 4 m/s 747 mmHg 94%
    04:00 +4°C° 0 mm 4 m/s 746 mmHg 93%
    05:00 +4°C° 0 mm 4 m/s 746 mmHg 91%
    06:00 +5°C° 0.1 mm 5 m/s 746 mmHg 88%
    07:00 +5°C° 0.1 mm 5 m/s 747 mmHg 84%
    08:00 +5°C° 0 mm 6 m/s 747 mmHg 79%
    09:00 +7°C° 0 mm 6 m/s 747 mmHg 74%
    10:00 +7°C° 0 mm 6 m/s 747 mmHg 69%
    11:00 +8°C° 0 mm 7 m/s 747 mmHg 64%
    12:00 +8°C° 0.1 mm 6 m/s 747 mmHg 62%
    13:00 +9°C° 0.1 mm 6 m/s 747 mmHg 60%
    14:00 +9°C° 0.1 mm 6 m/s 747 mmHg 58%
    15:00 +9°C° 0.1 mm 5 m/s 747 mmHg 59%
    16:00 +8°C° 0.1 mm 4 m/s 748 mmHg 61%
    17:00 +8°C° 0.1 mm 4 m/s 748 mmHg 62%
    18:00 +8°C° 0 mm 3 m/s 748 mmHg 67%
    19:00 +5°C° 0 mm 3 m/s 749 mmHg 71%
    20:00 +4°C° 0 mm 3 m/s 749 mmHg 75%
    21:00 +3°C° 0 mm 3 m/s 749 mmHg 77%
    22:00 +2°C° 0 mm 3 m/s 749 mmHg 79%
    23:00 +3°C° 0 mm 2 m/s 749 mmHg 81%

    Amanhã, 21 Setembro, Sábado

    Tempo Temperatura Precipitação Vento Pressão Humidade
    00:00 +3°C° 0 mm 2 m/s 750 mmHg 82%
    01:00 +3°C° 0 mm 2 m/s 750 mmHg 82%
    02:00 +3°C° 0 mm 2 m/s 750 mmHg 83%
    03:00 +3°C° 0 mm 2 m/s 750 mmHg 82%
    04:00 +3°C° 0 mm 2 m/s 749 mmHg 82%
    05:00 +3°C° 0 mm 2 m/s 749 mmHg 81%
    06:00 +3°C° 0 mm 3 m/s 749 mmHg 78%
    07:00 +4°C° 0 mm 3 m/s 749 mmHg 75%
    08:00 +5°C° 0 mm 4 m/s 749 mmHg 72%
    09:00 +5°C° 0.2 mm 4 m/s 748 mmHg 76%
    10:00 +5°C° 0.2 mm 5 m/s 748 mmHg 80%
    11:00 +5°C° 0.2 mm 5 m/s 747 mmHg 84%
    12:00 +6°C° 0.7 mm 5 m/s 747 mmHg 88%
    13:00 +6°C° 0.7 mm 5 m/s 747 mmHg 92%
    14:00 +7°C° 0.7 mm 4 m/s 746 mmHg 96%
    15:00 +8°C° 0.3 mm 5 m/s 746 mmHg 95%
    16:00 +10°C° 0.3 mm 5 m/s 746 mmHg 93%
    17:00 +12°C° 0.3 mm 5 m/s 746 mmHg 92%
    18:00 +12°C° 0.1 mm 5 m/s 746 mmHg 93%
    19:00 +12°C° 0.1 mm 5 m/s 746 mmHg 93%
    20:00 +12°C° 0.1 mm 5 m/s 746 mmHg 93%
    21:00 +12°C° 0.1 mm 5 m/s 746 mmHg 93%
    22:00 +11°C° 0.1 mm 6 m/s 746 mmHg 93%
    23:00 +10°C° 0.1 mm 6 m/s 746 mmHg 94%

    Depois de amanhã, 22 Setembro, Domingo

    Tempo Temperatura Precipitação Vento Pressão Humidade
    00:00 +10°C° 0 mm 6 m/s 746 mmHg 94%
    01:00 +10°C° 0 mm 6 m/s 746 mmHg 94%
    02:00 +10°C° 0 mm 6 m/s 746 mmHg 95%
    03:00 +9°C° 0 mm 6 m/s 746 mmHg 94%
    04:00 +9°C° 0 mm 6 m/s 746 mmHg 94%
    05:00 +9°C° 0 mm 6 m/s 745 mmHg 93%
    06:00 +9°C° 0 mm 6 m/s 745 mmHg 92%
    07:00 +10°C° 0 mm 6 m/s 745 mmHg 90%
    08:00 +10°C° 0 mm 5 m/s 745 mmHg 89%
    09:00 +12°C° 0 mm 5 m/s 745 mmHg 84%
    10:00 +14°C° 0 mm 5 m/s 745 mmHg 79%
    11:00 +15°C° 0 mm 5 m/s 745 mmHg 74%
    12:00 +16°C° 0 mm 6 m/s 745 mmHg 70%
    13:00 +17°C° 0 mm 6 m/s 745 mmHg 67%
    14:00 +18°C° 0 mm 7 m/s 745 mmHg 63%
    15:00 +17°C° 0 mm 6 m/s 744 mmHg 67%
    16:00 +16°C° 0 mm 6 m/s 744 mmHg 70%
    17:00 +15°C° 0 mm 5 m/s 744 mmHg 74%
    18:00 +14°C° 0 mm 4 m/s 745 mmHg 79%
    19:00 +12°C° 0 mm 4 m/s 745 mmHg 85%
    20:00 +11°C° 0 mm 3 m/s 746 mmHg 90%
    21:00 +10°C° 0 mm 3 m/s 746 mmHg 86%
    22:00 +8°C° 0 mm 3 m/s 747 mmHg 82%
    23:00 +7°C° 0 mm 3 m/s 747 mmHg 77%

    23 Setembro, Segunda-feira

    Tempo Temperatura Precipitação Vento Pressão Humidade
    00:00 +7°C° 0 mm 3 m/s 747 mmHg 76%
    01:00 +5°C° 0 mm 3 m/s 748 mmHg 74%
    02:00 +5°C° 0 mm 3 m/s 748 mmHg 72%
    03:00 +4°C° 0 mm 3 m/s 748 mmHg 74%
    04:00 +3°C° 0 mm 3 m/s 748 mmHg 75%
    05:00 +3°C° 0 mm 3 m/s 749 mmHg 77%
    06:00 +3°C° 0 mm 3 m/s 749 mmHg 75%
    07:00 +4°C° 0 mm 3 m/s 749 mmHg 74%
    08:00 +4°C° 0 mm 3 m/s 749 mmHg 73%
    09:00 +5°C° 0 mm 3 m/s 749 mmHg 67%
    10:00 +8°C° 0 mm 3 m/s 749 mmHg 60%
    11:00 +9°C° 0 mm 3 m/s 750 mmHg 54%
    12:00 +10°C° 0 mm 3 m/s 749 mmHg 52%
    13:00 +10°C° 0 mm 3 m/s 749 mmHg 49%
    14:00 +11°C° 0 mm 3 m/s 748 mmHg 47%
    15:00 +10°C° 0 mm 3 m/s 748 mmHg 50%
    16:00 +10°C° 0 mm 2 m/s 748 mmHg 53%
    17:00 +10°C° 0 mm 2 m/s 748 mmHg 56%
    18:00 +9°C° 0 mm 2 m/s 748 mmHg 58%
    19:00 +7°C° 0 mm 3 m/s 748 mmHg 59%
    20:00 +5°C° 0 mm 3 m/s 748 mmHg 60%
    21:00 +5°C° 0 mm 3 m/s 748 mmHg 61%
    22:00 +4°C° 0 mm 3 m/s 748 mmHg 62%
    23:00 +4°C° 0 mm 3 m/s 747 mmHg 63%

    24 Setembro, Terça-feira

    Tempo Temperatura Precipitação Vento Pressão Humidade
    00:00 +4°C° 0 mm 3 m/s 747 mmHg 63%
    01:00 +3°C° 0 mm 3 m/s 747 mmHg 64%
    02:00 +3°C° 0 mm 4 m/s 747 mmHg 64%
    03:00 +3°C° 0 mm 4 m/s 747 mmHg 65%
    04:00 +3°C° 0 mm 4 m/s 747 mmHg 67%
    05:00 +3°C° 0 mm 4 m/s 747 mmHg 68%
    06:00 +3°C° 0 mm 4 m/s 747 mmHg 67%
    07:00 +4°C° 0 mm 4 m/s 747 mmHg 65%
    08:00 +3°C° 0 mm 5 m/s 747 mmHg 64%
    09:00 +6°C° 0 mm 5 m/s 747 mmHg 60%
    10:00 +8°C° 0 mm 5 m/s 747 mmHg 56%
    11:00 +9°C° 0 mm 5 m/s 747 mmHg 52%
    12:00 +11°C° 0 mm 4 m/s 747 mmHg 51%
    13:00 +11°C° 0 mm 4 m/s 746 mmHg 50%
    14:00 +12°C° 0 mm 4 m/s 746 mmHg 49%
    15:00 +12°C° 0 mm 3 m/s 746 mmHg 53%
    16:00 +11°C° 0 mm 3 m/s 746 mmHg 56%
    17:00 +10°C° 0 mm 2 m/s 746 mmHg 60%
    18:00 +9°C° 0 mm 3 m/s 746 mmHg 62%
    19:00 +7°C° 0 mm 3 m/s 746 mmHg 65%
    20:00 +5°C° 0 mm 3 m/s 746 mmHg 67%
    21:00 +4°C° 0 mm 3 m/s 746 mmHg 67%
    22:00 +3°C° 0 mm 3 m/s 746 mmHg 68%
    23:00 +3°C° 0 mm 3 m/s 746 mmHg 68%

    25 Setembro, Quarta-feira

    Tempo Temperatura Precipitação Vento Pressão Humidade
    00:00 +2°C° 0 mm 3 m/s 746 mmHg 70%
    01:00 +2°C° 0 mm 3 m/s 746 mmHg 71%
    02:00 +2°C° 0 mm 3 m/s 746 mmHg 73%
    03:00 +1°C° 0 mm 3 m/s 746 mmHg 75%
    04:00 +1°C° 0 mm 3 m/s 746 mmHg 76%
    05:00 +1°C° 0 mm 3 m/s 746 mmHg 78%
    06:00 +2°C° 0 mm 3 m/s 746 mmHg 75%
    07:00 +2°C° 0 mm 3 m/s 746 mmHg 71%
    08:00 +3°C° 0 mm 3 m/s 746 mmHg 68%
    09:00 +5°C° 0 mm 3 m/s 747 mmHg 63%
    10:00 +8°C° 0 mm 3 m/s 747 mmHg 57%
    11:00 +10°C° 0 mm 4 m/s 747 mmHg 52%
    12:00 +11°C° 0 mm 3 m/s 747 mmHg 50%
    13:00 +11°C° 0 mm 3 m/s 746 mmHg 48%
    14:00 +12°C° 0 mm 3 m/s 746 mmHg 46%
    15:00 +11°C° 0 mm 3 m/s 746 mmHg 50%
    16:00 +11°C° 0 mm 3 m/s 746 mmHg 54%
    17:00 +10°C° 0 mm 2 m/s 746 mmHg 58%
    18:00 +9°C° 0 mm 3 m/s 746 mmHg 61%
    19:00 +7°C° 0 mm 3 m/s 746 mmHg 64%
    20:00 +4°C° 0 mm 3 m/s 747 mmHg 67%
    21:00 +4°C° 0 mm 3 m/s 747 mmHg 68%
    22:00 +4°C° 0 mm 4 m/s 747 mmHg 69%
    23:00 +3°C° 0 mm 4 m/s 747 mmHg 69%
    Mostrar mais